KB4NWJ Weather Reports


Display with metric or nautical units.
time (UTC)temp
F
wind
direction
speed
MPH
gust
MPH
rain 1hr
in
rain 24hr
in
rain mn
in
humidity
%
barometer
mb
20260906122730 72 250 0.0 0.0 0.00 0.01 0.01 99 1014.9
20260906122226 73 246 0.0 0.0 0.00 0.01 0.01 99 1015.0
20260906121722 71 250 0.0 0.0 0.00 0.01 0.01 99 1014.7
20260906121218 71 252 0.0 0.0 0.00 0.01 0.01 99 1014.7
20260906120714 71 253 0.0 0.0 0.00 0.01 0.01 99 1014.6
20260906120210 71 249 0.0 0.0 0.00 0.01 0.01 99 1014.5
20260906115706 71 250 0.0 0.0 0.00 0.01 0.01 99 1014.6
20260906115201 71 251 0.0 0.0 0.00 0.01 0.01 99 1014.9
20260906114700 71 252 0.0 0.0 0.00 0.01 0.01 99 1014.4
20260906114155 71 246 0.0 0.0 0.00 0.01 0.01 99 1014.1
20260906113655 71 251 0.0 0.0 0.00 0.01 0.01 99 1014.4
20260906113155 71 250 0.0 0.0 0.00 0.01 0.01 99 1014.4
20260906112654 71 248 0.0 0.0 0.00 0.01 0.01 99 1014.3
20260906112152 71 249 0.0 0.0 0.07 0.01 0.01 99 1014.3
20260906111651 71 248 0.0 0.0 0.07 0.01 0.01 99 1014.3
20260906111145 71 245 0.0 0.0 0.00 0.00 0.00 99 1014.3
20260906110641 71 245 0.0 0.0 0.00 0.00 0.00 99 1014.2
20260906110136 71 249 0.0 0.0 0.00 0.00 0.00 99 1014.2
20260906105629 71 249 0.0 0.0 0.00 0.00 0.00 99 1014.3
20260906105126 71 249 0.0 0.0 0.00 0.00 0.00 99 1014.2
20260906104625 71 248 0.0 0.0 0.00 0.00 0.00 99 1014.1
20260906104120 71 248 0.0 0.0 0.00 0.00 0.00 99 1014.2
20260906103618 71 248 0.0 0.0 0.00 0.00 0.00 99 1014.0
20260906103113 71 248 0.0 0.0 0.00 0.00 0.00 99 1014.4
20260906102608 71 247 0.0 0.0 0.00 0.00 0.00 99 1014.4
20260906102102 71 243 0.0 0.0 0.00 0.00 0.00 99 1014.2
20260906101556 71 242 0.0 0.0 0.00 0.00 0.00 99 1014.2
20260906101051 71 245 0.0 0.0 0.00 0.00 0.00 99 1014.5
20260906100547 71 246 0.0 0.0 0.00 0.00 0.00 99 1014.3
20260906100047 71 245 0.0 0.0 0.00 0.00 0.00 99 1014.1
20260906095542 71 253 0.0 0.0 0.00 0.00 0.00 99 1013.9
20260906095037 71 253 0.0 0.0 0.00 0.00 0.00 99 1014.2
20260906094536 71 253 0.0 0.0 0.00 0.00 0.00 99 1013.9
20260906094032 71 253 0.0 0.0 0.00 0.00 0.00 99 1013.9
20260906093528 71 251 0.0 0.0 0.00 0.00 0.00 99 1013.8
20260906093023 71 252 0.0 0.0 0.00 0.00 0.00 99 1014.0
20260906092522 71 251 0.0 0.0 0.00 0.00 0.00 99 1013.8
20260906092018 71 251 0.0 0.0 0.00 0.00 0.00 99 1013.9
20260906091514 71 251 0.0 0.0 0.00 0.00 0.00 99 1013.6
20260906091010 71 251 0.0 0.0 0.00 0.00 0.00 99 1013.6
20260906090510 71 251 0.0 0.0 0.00 0.00 0.00 99 1013.5
20260906090005 71 249 0.0 0.0 0.00 0.00 0.00 99 1013.5
20260906085504 71 245 0.0 0.0 0.00 0.00 0.00 99 1013.5
20260906085003 71 249 0.0 0.0 0.00 0.00 0.00 99 1013.6
20260906084458 71 248 0.0 0.0 0.00 0.00 0.00 99 1013.7
20260906083957 71 248 0.0 0.0 0.00 0.00 0.00 99 1013.9
20260906083453 71 248 0.0 0.0 0.00 0.00 0.00 99 1013.7
20260906082952 71 248 0.0 0.0 0.00 0.00 0.00 99 1013.6
20260906082447 71 248 0.0 0.0 0.00 0.00 0.00 99 1013.5
20260906081943 71 249 0.0 0.0 0.00 0.00 0.00 99 1013.6
20260906081443 71 248 0.0 0.0 0.00 0.00 0.00 99 1013.7
20260906080940 71 249 0.0 0.0 0.00 0.00 0.00 99 1013.7
20260906080436 71 246 0.0 0.0 0.00 0.00 0.00 99 1013.8
20260906075931 71 250 0.0 0.0 0.00 0.00 0.00 99 1013.8
20260906075426 71 251 0.0 0.0 0.00 0.00 0.00 99 1013.8
20260906074921 71 251 0.0 0.0 0.00 0.00 0.00 99 1013.9
20260906074420 71 250 0.0 0.0 0.00 0.00 0.00 99 1013.8
20260906073920 71 249 0.0 0.0 0.00 0.00 0.00 99 1013.5
20260906073414 71 249 0.0 0.0 0.00 0.00 0.00 99 1013.5
20260906072911 71 249 0.0 0.0 0.00 0.00 0.00 99 1013.6
20260906072406 71 249 0.0 0.0 0.00 0.00 0.00 99 1013.9
20260906071902 71 248 0.0 0.0 0.00 0.00 0.00 99 1013.5
20260906071357 71 253 0.0 0.0 0.00 0.00 0.00 99 1013.8
20260906070853 71 249 0.0 0.0 0.00 0.00 0.00 99 1013.8
20260906070349 71 246 0.0 0.0 0.00 0.00 0.00 99 1013.7
20260906065844 71 246 0.0 0.0 0.00 0.00 0.00 99 1013.8
20260906065338 71 246 0.0 0.0 0.00 0.00 0.00 99 1013.6
20260906064834 71 247 0.0 0.0 0.00 0.00 0.00 99 1013.6
20260906064330 71 246 0.0 0.0 0.00 0.00 0.00 99 1013.8
20260906063824 71 247 0.0 0.0 0.00 0.00 0.00 99 1013.8
20260906063320 71 250 0.0 0.0 0.00 0.00 0.00 99 1013.8
20260906062816 71 250 0.0 0.0 0.00 0.00 0.00 99 1013.7
20260906062315 71 250 0.0 0.0 0.00 0.00 0.00 99 1013.8
20260906061810 71 250 0.0 0.0 0.00 0.00 0.00 99 1014.0
20260906061306 71 247 0.0 0.0 0.00 0.00 0.00 99 1014.0
20260906060801 71 247 0.0 0.0 0.00 0.00 0.00 99 1014.0
20260906060258 71 243 0.0 0.0 0.00 0.00 0.00 99 1013.8
20260906055754 71 249 0.0 0.0 0.00 0.00 0.00 99 1014.0
20260906055249 71 246 0.0 0.0 0.00 0.00 0.00 99 1014.1
20260906054744 71 246 0.0 0.0 0.00 0.00 0.00 99 1013.9
20260906054239 71 246 0.0 0.0 0.00 0.00 0.00 99 1014.3
20260906053736 71 249 0.0 0.0 0.00 0.00 0.00 99 1014.4
20260906053232 71 247 0.0 0.0 0.00 0.00 0.00 99 1014.1
20260906052726 71 247 0.0 0.0 0.00 0.00 0.00 99 1014.5
20260906052223 71 246 0.0 0.0 0.00 0.00 0.00 99 1014.3
20260906051720 71 243 0.0 0.0 0.00 0.00 0.00 99 1014.3
20260906051219 71 247 0.0 0.0 0.00 0.00 0.00 99 1014.5
20260906050714 71 249 0.0 0.0 0.00 0.00 0.00 99 1014.4
20260906050209 71 253 0.0 0.0 0.00 0.00 0.00 99 1014.6
20260906045708 72 246 0.0 0.0 0.00 0.00 0.00 99 1014.9
20260906045202 71 246 0.0 0.0 0.00 0.00 0.00 99 1014.7
20260906044659 71 253 0.0 0.0 0.00 0.00 0.00 99 1014.9
20260906044154 72 256 0.0 1.0 0.00 0.00 0.00 99 1014.6
20260906043650 72 253 0.0 0.0 0.00 0.00 0.00 99 1014.3
20260906043145 72 253 0.0 0.0 0.00 0.00 0.00 99 1014.4
20260906042640 72 250 0.0 0.0 0.00 0.00 0.00 99 1014.5
20260906042133 72 248 0.0 0.0 0.00 0.00 0.00 99 1014.6
20260906041629 72 250 0.0 0.0 0.00 0.00 0.00 99 1014.5
20260906041124 72 247 0.0 0.0 0.00 0.00 0.00 99 1014.6
20260906040619 72 244 0.0 0.0 0.00 0.00 0.00 99 1014.7
20260906040114 72 244 0.0 0.0 0.00 0.00 0.00 99 1014.5
20260906035609 72 250 0.0 0.0 0.00 0.99 0.99 99 1014.4
20260906035105 72 250 0.0 0.0 0.00 0.99 0.99 99 1014.6
20260906034600 72 249 0.0 0.0 0.00 0.99 0.99 99 1014.5
20260906034055 72 249 0.0 0.0 0.00 0.99 0.99 99 1014.6
20260906033550 72 255 0.0 1.0 0.00 0.99 0.99 99 1014.6
20260906033045 72 252 0.0 0.0 0.00 0.99 0.99 99 1014.7
20260906032542 72 252 0.0 0.0 0.00 0.99 0.99 99 1014.7
20260906032042 72 253 0.0 0.0 0.00 0.99 0.99 99 1015.0
20260906031538 72 253 0.0 0.0 0.00 0.99 0.99 99 1015.3
20260906031033 72 252 0.0 0.0 0.00 0.99 0.99 99 1015.0
20260906030532 72 252 0.0 0.0 0.00 0.99 0.99 99 1015.2
20260906030032 72 252 0.0 0.0 0.00 0.99 0.99 99 1015.2
20260906025532 72 246 0.0 0.0 0.00 0.99 0.99 99 1015.5
20260906025030 72 250 0.0 0.0 0.00 0.99 0.99 99 1015.4
20260906024526 72 253 0.0 0.0 0.00 0.99 0.99 99 1015.2
20260906024025 71 250 0.0 0.0 0.00 0.99 0.99 99 1015.2
20260906023522 71 241 1.0 1.0 0.00 0.99 0.99 99 1015.2
20260906023016 71 249 0.0 0.0 0.00 0.99 0.99 99 1015.4
20260906022511 71 242 1.0 1.0 0.00 0.99 0.99 99 1015.3
20260906022007 71 250 0.0 0.0 0.00 0.99 0.99 99 1015.3
20260906021502 71 251 0.0 0.0 0.00 0.99 0.99 99 1015.3
20260906020956 71 250 0.0 0.0 0.00 0.99 0.99 99 1015.3
20260906020450 71 251 0.0 0.0 0.00 0.99 0.99 99 1015.1
20260906015950 71 248 0.0 0.0 0.00 0.99 0.99 99 1015.1
20260906015449 71 253 0.0 0.0 0.00 0.99 0.99 99 1015.1
20260906014949 70 249 0.0 0.0 0.00 0.99 0.99 99 1015.1
20260906014449 71 227 1.0 1.0 0.00 0.99 0.99 99 1014.9
20260906013945 70 239 1.0 1.0 0.00 0.99 0.99 99 1014.4
20260906013440 70 246 0.0 0.0 0.00 0.99 0.99 99 1014.2
20260906012936 70 245 0.0 0.0 0.00 0.99 0.99 99 1014.3
20260906012431 70 242 0.0 0.0 0.00 0.99 0.99 99 1014.4
20260906011930 70 248 0.0 0.0 0.00 0.99 0.99 99 1014.4
20260906011426 70 245 0.0 0.0 0.00 0.99 0.99 99 1014.2
20260906010921 70 262 0.0 0.0 0.00 0.99 0.99 99 1014.3
20260906010416 70 250 0.0 0.0 0.05 0.99 0.99 99 1014.0
20260906005912 69 232 1.0 1.0 0.78 0.99 0.99 99 1014.0
20260906005412 71 247 1.0 2.0 2.41 0.98 0.98 99 1014.3
20260906004910 73 245 1.0 1.0 3.07 0.89 0.89 99 1014.7
20260906004405 75 276 3.0 3.0 3.38 0.57 0.57 99 1015.4
20260906003900 77 341 3.0 5.0 2.10 0.35 0.35 98 1014.9
20260906003355 81 252 3.0 5.0 0.05 0.01 0.01 88 1014.0
20260906002851 87 8 5.0 6.0 0.00 0.00 0.00 76 1013.7
20260906002350 87 245 0.0 0.0 0.00 0.00 0.00 78 1013.2
20260906001846 87 194 2.0 3.0 0.00 0.00 0.00 77 1012.8
20260906001341 87 235 1.0 1.0 0.00 0.00 0.00 77 1012.9
20260906000837 88 250 0.0 1.0 0.00 0.00 0.00 76 1012.3
20260906000337 88 254 0.0 0.0 0.00 0.00 0.00 76 1012.5
20260905235836 88 252 0.0 1.0 0.00 0.00 0.00 76 1012.7
20260905235331 88 238 0.0 0.0 0.00 0.00 0.00 75 1012.6
20260905234826 89 254 0.0 0.0 0.00 0.00 0.00 74 1012.8
20260905234321 89 252 1.0 1.0 0.00 0.00 0.00 74 1012.7
20260905233816 89 255 1.0 1.0 0.00 0.00 0.00 73 1012.5
20260905233311 90 237 1.0 1.0 0.00 0.00 0.00 73 1012.5
20260905232810 90 255 0.0 0.0 0.00 0.00 0.00 72 1012.7
20260905232307 90 245 0.0 0.0 0.00 0.00 0.00 72 1012.7
20260905231802 90 253 0.0 0.0 0.00 0.00 0.00 72 1012.6
20260905231257 91 256 0.0 1.0 0.00 0.00 0.00 70 1012.9
20260905230754 91 215 3.0 3.0 0.00 0.00 0.00 69 1012.7
20260905230251 91 238 1.0 1.0 0.00 0.00 0.00 68 1012.7
20260905225751 91 208 1.0 2.0 0.00 0.00 0.00 68 1012.6
20260905225246 92 249 0.0 0.0 0.00 0.00 0.00 66 1012.6
20260905224745 92 240 0.0 1.0 0.00 0.00 0.00 62 1012.4
20260905224241 94 218 2.0 2.0 0.00 0.00 0.00 53 1012.8
20260905223737 95 242 2.0 2.0 0.00 0.00 0.00 50 1012.6
20260905223234 95 246 1.0 1.0 0.00 0.00 0.00 48 1012.6
20260905222729 96 234 1.0 2.0 0.00 0.00 0.00 47 1012.6
20260905222228 96 259 0.0 0.0 0.00 0.00 0.00 49 1012.2
20260905221724 95 251 0.0 0.0 0.00 0.00 0.00 47 1012.5
20260905221221 95 264 0.0 0.0 0.00 0.00 0.00 47 1012.3
20260905220717 97 238 3.0 3.0 0.00 0.00 0.00 45 1012.6
20260905220212 98 251 0.0 0.0 0.00 0.00 0.00 45 1012.3
20260905215712 97 244 0.0 0.0 0.00 0.00 0.00 44 1012.4
20260905215208 96 258 0.0 1.0 0.00 0.00 0.00 44 1012.3
20260905214703 96 261 1.0 1.0 0.00 0.00 0.00 45 1012.4
20260905214158 96 243 0.0 0.0 0.00 0.00 0.00 46 1012.2
20260905213654 96 224 1.0 1.0 0.00 0.00 0.00 45 1012.3
20260905213149 96 255 1.0 1.0 0.00 0.00 0.00 46 1012.3
20260905212644 96 255 1.0 1.0 0.00 0.00 0.00 46 1012.3
20260905212144 98 270 2.0 2.0 0.00 0.00 0.00 44 1012.6
20260905211638 98 258 0.0 0.0 0.00 0.00 0.00 45 1012.5
20260905211134 96 250 1.0 3.0 0.00 0.00 0.00 43 1012.5
20260905210631 96 273 1.0 1.0 0.00 0.00 0.00 45 1012.6
20260905210125 97 249 0.0 0.0 0.00 0.00 0.00 44 1012.6
20260905205624 97 246 1.0 1.0 0.00 0.00 0.00 44 1012.8
20260905205124 97 258 2.0 2.0 0.00 0.00 0.00 44 1012.8
20260905204623 96 254 0.0 0.0 0.00 0.00 0.00 49 1012.8
20260905204119 97 221 3.0 3.0 0.00 0.00 0.00 48 1012.7
20260905203619 97 270 1.0 2.0 0.00 0.00 0.00 46 1012.8
20260905203114 96 252 1.0 1.0 0.00 0.00 0.00 49 1012.6
20260905202610 96 248 1.0 1.0 0.00 0.00 0.00 48 1013.1
20260905202105 96 228 3.0 3.0 0.00 0.00 0.00 46 1013.3
20260905201601 96 234 3.0 3.0 0.00 0.00 0.00 48 1013.2
20260905201101 97 222 3.0 3.0 0.00 0.00 0.00 48 1013.3
20260905200556 97 248 0.0 0.0 0.00 0.00 0.00 48 1013.4
20260905200056 95 240 0.0 0.0 0.00 0.00 0.00 50 1013.4
20260905195549 97 288 0.0 0.0 0.00 0.00 0.00 50 1013.8
20260905195045 96 255 1.0 2.0 0.00 0.00 0.00 49 1013.7
20260905194545 97 241 0.0 1.0 0.00 0.00 0.00 50 1013.9
20260905194044 96 198 3.0 5.0 0.00 0.00 0.00 51 1013.7
20260905193539 96 162 3.0 3.0 0.00 0.00 0.00 50 1013.7
20260905193035 95 249 3.0 5.0 0.00 0.00 0.00 50 1013.5
20260905192529 95 204 6.0 7.0 0.00 0.00 0.00 51 1013.8
20260905192026 96 181 2.0 2.0 0.00 0.00 0.00 51 1013.7
20260905191524 95 267 0.0 1.0 0.00 0.00 0.00 55 1014.1
20260905191024 95 353 2.0 3.0 0.00 0.00 0.00 53 1013.8
20260905190521 94 257 3.0 3.0 0.00 0.00 0.00 57 1014.0
20260905190016 95 242 1.0 1.0 0.00 0.00 0.00 54 1014.2
20260905185510 97 234 2.0 3.0 0.00 0.00 0.00 51 1014.3
20260905185009 95 253 0.0 0.0 0.00 0.00 0.00 52 1014.4
20260905184504 96 49 2.0 2.0 0.00 0.00 0.00 51 1014.4
20260905184003 96 318 1.0 1.0 0.00 0.00 0.00 52 1014.3
20260905183457 95 175 3.0 5.0 0.00 0.00 0.00 50 1014.6
20260905182952 95 313 1.0 2.0 0.00 0.00 0.00 53 1014.6
20260905182451 96 250 0.0 0.0 0.00 0.00 0.00 58 1014.5
20260905181947 95 251 0.0 0.0 0.00 0.00 0.00 58 1014.6
20260905181446 94 250 2.0 2.0 0.00 0.00 0.00 55 1014.6
20260905180946 93 184 4.0 5.0 0.00 0.00 0.00 57 1014.7
20260905180440 94 238 2.0 3.0 0.00 0.00 0.00 60 1014.9
20260905175936 95 234 2.0 2.0 0.00 0.00 0.00 58 1014.9
20260905175430 95 307 0.0 1.0 0.00 0.00 0.00 58 1014.7
20260905174926 94 276 0.0 1.0 0.00 0.00 0.00 59 1015.1
20260905174421 95 68 2.0 3.0 0.00 0.00 0.00 58 1015.3
20260905173916 95 248 1.0 2.0 0.00 0.00 0.00 59 1015.3
20260905173413 94 222 0.0 0.0 0.00 0.00 0.00 59 1015.2
20260905172912 94 248 0.0 0.0 0.00 0.00 0.00 56 1015.4
20260905172410 94 248 0.0 0.0 0.00 0.00 0.00 58 1015.6
20260905171906 94 212 3.0 7.0 0.00 0.00 0.00 57 1015.8
20260905171403 93 198 3.0 3.0 0.00 0.00 0.00 61 1015.6
20260905170859 93 211 3.0 3.0 0.00 0.00 0.00 60 1015.5
20260905170355 94 166 4.0 6.0 0.00 0.00 0.00 58 1015.7
20260905165854 94 245 1.0 2.0 0.00 0.00 0.00 58 1015.7
20260905165349 93 252 1.0 1.0 0.00 0.00 0.00 59 1016.0
20260905164844 92 210 3.0 3.0 0.00 0.00 0.00 60 1015.7
20260905164339 93 182 2.0 3.0 0.00 0.00 0.00 61 1015.9
20260905163834 95 304 1.0 2.0 0.00 0.00 0.00 58 1015.7
20260905163330 94 227 1.0 1.0 0.00 0.00 0.00 61 1015.8
20260905162827 93 249 2.0 3.0 0.00 0.00 0.00 61 1016.0
20260905162321 93 236 2.0 2.0 0.00 0.00 0.00 61 1016.1
20260905161821 94 249 1.0 2.0 0.00 0.00 0.00 61 1016.1
20260905161321 93 229 1.0 1.0 0.00 0.00 0.00 61 1016.1
20260905160819 93 249 0.0 1.0 0.00 0.00 0.00 61 1016.0
20260905160319 92 272 1.0 1.0 0.00 0.00 0.00 66 1016.2
20260905155813 91 246 1.0 1.0 0.00 0.00 0.00 66 1016.1
20260905155313 91 244 0.0 0.0 0.00 0.00 0.00 65 1016.3
20260905154808 92 255 1.0 2.0 0.00 0.00 0.00 61 1016.3
20260905154303 95 282 2.0 2.0 0.00 0.00 0.00 61 1016.4
20260905153758 93 256 1.0 1.0 0.00 0.00 0.00 63 1016.1
20260905153255 94 240 1.0 1.0 0.00 0.00 0.00 60 1016.1
20260905152749 93 263 0.0 0.0 0.00 0.00 0.00 65 1016.4
20260905152243 92 201 2.0 2.0 0.00 0.00 0.00 63 1016.3
20260905151742 92 267 1.0 2.0 0.00 0.00 0.00 66 1016.2
20260905151239 90 203 1.0 1.0 0.00 0.00 0.00 67 1016.4
20260905150738 92 327 2.0 2.0 0.00 0.00 0.00 66 1016.4
20260905150237 92 254 1.0 1.0 0.00 0.00 0.00 65 1016.3
20260905145735 91 240 0.0 0.0 0.00 0.00 0.00 67 1016.3
20260905145230 90 268 0.0 0.0 0.00 0.00 0.00 69 1016.3
20260905144728 89 241 0.0 0.0 0.00 0.00 0.00 70 1016.1
20260905144224 90 240 0.0 0.0 0.00 0.00 0.00 72 1016.3
20260905143718 89 245 0.0 1.0 0.00 0.00 0.00 73 1016.4
20260905143218 88 329 0.0 0.0 0.00 0.00 0.00 73 1016.6
20260905142716 87 252 1.0 1.0 0.00 0.00 0.00 74 1016.4
20260905142211 89 233 0.0 1.0 0.00 0.00 0.00 72 1016.6
20260905141706 89 244 0.0 1.0 0.00 0.00 0.00 74 1016.4
20260905141202 88 274 0.0 0.0 0.00 0.00 0.00 76 1016.6
20260905140657 88 222 1.0 1.0 0.00 0.00 0.00 75 1016.6
20260905140151 89 248 0.0 0.0 0.00 0.00 0.00 75 1016.5
20260905135646 87 244 0.0 0.0 0.00 0.00 0.00 77 1016.7
20260905135142 86 214 1.0 1.0 0.00 0.00 0.00 79 1016.5
20260905134636 85 241 0.0 0.0 0.00 0.00 0.00 81 1016.5
20260905134135 85 281 1.0 1.0 0.00 0.00 0.00 81 1016.5
20260905133631 83 248 1.0 1.0 0.00 0.00 0.00 83 1016.7
20260905133130 83 250 1.0 1.0 0.00 0.00 0.00 83 1016.7
20260905132630 82 257 1.0 1.0 0.00 0.00 0.00 85 1016.9
20260905132125 82 242 0.0 0.0 0.00 0.00 0.00 85 1016.9
20260905131620 81 239 0.0 0.0 0.00 0.00 0.00 88 1016.8
20260905131115 81 299 2.0 2.0 0.00 0.00 0.00 86 1017.0
20260905130614 81 247 0.0 0.0 0.00 0.00 0.00 87 1016.9
20260905130109 81 237 0.0 0.0 0.00 0.00 0.00 86 1017.0
20260905125609 79 247 1.0 1.0 0.00 0.00 0.00 89 1016.8
20260905125104 80 245 1.0 2.0 0.00 0.00 0.00 89 1016.9
20260905124601 80 242 0.0 0.0 0.00 0.00 0.00 89 1016.8
20260905124056 79 242 0.0 0.0 0.00 0.00 0.00 92 1016.8
20260905123551 77 244 1.0 1.0 0.00 0.00 0.00 96 1016.8
20260905123049 76 245 0.0 0.0 0.00 0.00 0.00 99 1016.9